TimeEST,TemperatureF,Dew PointF,Humidity,Sea Level PressureIn,VisibilityMPH,Wind Direction,Wind SpeedMPH,Gust SpeedMPH,PrecipitationIn,Events,Conditions,WindDirDegrees,DateUTC
12:06 AM,44.6,39.2,81,29.88,10.0,WSW,5.8,-,N/A,,Overcast,240,2013-02-05 05:06:00
12:56 AM,44.1,39.9,85,29.90,10.0,West,8.1,-,N/A,,Overcast,270,2013-02-05 05:56:00
1:56 AM,43.0,39.0,86,29.90,10.0,West,11.5,-,N/A,,Overcast,270,2013-02-05 06:56:00
2:56 AM,42.1,39.0,89,29.89,10.0,WSW,6.9,-,N/A,,Overcast,250,2013-02-05 07:56:00
3:41 AM,42.8,39.2,87,29.88,8.0,West,6.9,-,N/A,,Overcast,260,2013-02-05 08:41:00
3:47 AM,42.8,39.2,87,29.88,8.0,West,5.8,-,N/A,,Overcast,260,2013-02-05 08:47:00
3:56 AM,42.1,39.0,89,29.89,8.0,WSW,6.9,-,N/A,,Overcast,250,2013-02-05 08:56:00
4:56 AM,41.0,39.0,93,29.90,7.0,WNW,8.1,-,N/A,,Overcast,290,2013-02-05 09:56:00
5:56 AM,39.0,37.0,93,29.91,3.0,NNW,8.1,-,N/A,,Overcast,340,2013-02-05 10:56:00
6:56 AM,35.6,32.0,87,29.91,5.0,North,6.9,-,N/A,,Overcast,360,2013-02-05 11:56:00
7:56 AM,35.1,30.0,82,29.95,6.0,North,4.6,-,N/A,,Haze,10,2013-02-05 12:56:00
8:32 AM,35.6,30.2,81,29.96,5.0,North,5.8,-,N/A,,Haze,10,2013-02-05 13:32:00
8:56 AM,35.1,30.0,82,29.98,5.0,North,4.6,-,N/A,,Haze,360,2013-02-05 13:56:00
9:56 AM,37.0,32.0,82,29.97,4.0,Calm,Calm,-,N/A,,Haze,0,2013-02-05 14:56:00
10:56 AM,39.9,33.1,77,29.99,7.0,WSW,9.2,-,N/A,,Overcast,240,2013-02-05 15:56:00
11:22 AM,39.2,33.8,81,29.98,6.0,West,9.2,-,N/A,,Haze,270,2013-02-05 16:22:00
11:33 AM,39.2,33.8,81,29.98,7.0,WSW,9.2,-,N/A,,Overcast,240,2013-02-05 16:33:00
11:56 AM,42.1,33.1,70,29.98,8.0,WSW,9.2,-,N/A,,Overcast,240,2013-02-05 16:56:00
12:56 PM,43.0,34.0,71,29.94,9.0,SSW,10.4,-,N/A,,Overcast,200,2013-02-05 17:56:00
1:56 PM,45.0,34.0,65,29.92,10.0,SW,9.2,-,N/A,,Overcast,230,2013-02-05 18:56:00
2:56 PM,48.0,34.0,58,29.90,10.0,SW,9.2,-,N/A,,Mostly Cloudy,230,2013-02-05 19:56:00
3:56 PM,51.1,35.1,54,29.89,10.0,SW,9.2,-,N/A,,Mostly Cloudy,220,2013-02-05 20:56:00
4:56 PM,51.1,32.0,48,29.88,10.0,WSW,11.5,-,N/A,,Scattered Clouds,240,2013-02-05 21:56:00
5:56 PM,48.2,33.8,58,29.89,10.0,WSW,8.1,-,N/A,,Mostly Cloudy,250,2013-02-05 22:56:00
6:56 PM,44.1,32.0,63,29.93,10.0,West,8.1,-,N/A,,Mostly Cloudy,270,2013-02-05 23:56:00
7:56 PM,43.0,32.0,65,29.95,10.0,West,6.9,-,N/A,,Partly Cloudy,260,2013-02-06 00:56:00
8:56 PM,41.0,32.0,70,29.99,10.0,West,8.1,-,N/A,,Clear,280,2013-02-06 01:56:00
9:56 PM,42.1,33.1,70,30.02,10.0,WNW,8.1,-,N/A,,Clear,300,2013-02-06 02:56:00
10:56 PM,39.9,33.1,77,30.04,9.0,NW,8.1,-,N/A,,Clear,310,2013-02-06 03:56:00
11:56 PM,39.9,32.0,73,30.05,8.0,NNW,6.9,-,N/A,,Clear,330,2013-02-06 04:56:00